Regional Weather Roundup
Issued by NWS

Home | Current Version | Previous Version | Text Only | Print | Product List | Glossary On
Versions: 1 2 3 4 5 6 7 8 9 10 11 12 13 14 15 16 17 18 19 20 21 22 23 24 25 26 27
000
ASUS44 KBMX 260310
RWRAL

ALABAMA REGIONAL WEATHER ROUNDUP
NATIONAL WEATHER SERVICE BIRMINGHAM AL
1000 PM CDT MON JUL 25 2016

NOTE: "FAIR" INDICATES FEW OR NO CLOUDS BELOW 12,000 FEET
WITH NO SIGNIFICANT WEATHER AND/OR OBSTRUCTIONS TO VISIBILITY.

THE REMARK "TC" DENOTES TEMPERATURE IN DEGREES CELSIUS.

ALZ001>011-014-016>018-020-260400-
NORTH ALABAMA

CITY           SKY/WX    TMP DP  RH WIND       PRES   REMARKS
MUSCLE SHOALS  CLEAR     79  74  84 S3        30.01R
HUNTSVILLE     PTCLDY    83  71  67 CALM      30.01R
DECATUR        PTCLDY    81  73  76 CALM      30.01R
HALEYVILLE     FAIR      77  74  90 CALM      30.05R
GADSDEN        CLOUDY    77  72  84 W16         N/A
$$

ALZ012-013-022-023-030>036-040>044-260400-
WEST CENTRAL ALABAMA

CITY           SKY/WX    TMP DP  RH WIND       PRES   REMARKS
TUSCALOOSA     CLOUDY    85  71  63 NE3       30.00R HX  90
$$

ALZ015-024>027-033>036-040>044-260400-
CENTRAL ALABAMA

CITY           SKY/WX    TMP DP  RH WIND       PRES   REMARKS
BIRMINGHAM     CLOUDY    79  74  84 N5        30.07R
MONTGOMERY     CLEAR     81  70  69 S5        30.02R
SHELBY CO ARPT CLOUDY    78  74  87 SE3       30.05R
MAXWELL AFB    CLEAR     82  71  68 S5        30.01R
GREENVILLE     NOT AVBL
$$

ALZ019-021-028-029-037-038-045>048-260400-
EAST CENTRAL ALABAMA

CITY           SKY/WX    TMP DP  RH WIND       PRES   REMARKS
ANNISTON       CLOUDY    77  73  87 CALM      30.04S
ALEXANDER CITY CLOUDY    75  75 100 CALM      30.05R
AUBURN         CLEAR     78  75  90 S3        30.07R
$$

ALZ051>064-260400-
SOUTHWEST ALABAMA

CITY           SKY/WX    TMP DP  RH WIND       PRES   REMARKS
MOBILE         PTCLDY    82  75  79 SE8       29.98S
BROOKLEY FIELD PTCLDY    83  77  82 E13       29.98S HX  92
EVERGREEN      CLEAR     75  72  90 CALM      30.02R
$$

ALZ049-050-065>069-260400-
SOUTHEAST ALABAMA

CITY           SKY/WX    TMP DP  RH WIND       PRES   REMARKS
DOTHAN         CLEAR     79  72  79 S5        30.08R
OZARK          CLEAR     79  73  80 SE3       30.03R
TROY           CLEAR     79  72  79 CALM      30.05R
EUFAULA        FAIR      78  71  79 SW3       30.04R
$$




USA.gov is the U.S. government's official web portal to all federal, state and local government web resources and services.